Location: Darmstadt
(49.8706°N, 8.6494°E)
Time: 05:14:40
(UTC+01:00)

Aureole 3 - Pass Details

Date: 31 October 2020
Orbit: 382 x 1231 km, 82.5° (Epoch: 03 December)

Event Time Altitude Azimuth Distance (km) Brightness Sun altitude
Rises 17:41:41 0° 170° (S) 2,302 6.6 -6.7°
Reaches altitude 10° 17:43:46 10° 161° (SSE) 1,416 5.4 -7.0°
Maximum altitude 17:46:31 34° 94° (E) 653 3.2 -7.4°
Drops below altitude 10° 17:49:20 10° 26° (NNE) 1,445 5.1 -7.9°
Sets 17:51:29 0° 17° (NNE) 2,359 6.3 -8.2°
